Tracking 19794 objects as of 21-Jul-2019
HD Live streaming from Space Station
objects crossing your sky now

FENGYUN 1C DEB

Track FENGYUN 1C DEB now!
10-day predictions


NORAD ID: 37064
Int'l Code: 1999-025EEY
Perigee: 830.3 km
Apogee: 1,039.8 km
Inclination: 98.9 °
Period: 103.6 minutes
Semi major axis: 7306 km
RCS: 0.0093 m2 (small)
Launch date: May 10, 1999
Source: People's Republic of China (PRC)
Launch site: Taiyaun Space Center, China (TSC)

Note: This is SATELLITE DEBRIS
aabbcc
Your satellite tracking list
Your tracking list is empty




NASA's NSSDC Master Catalog

Two Line Element Set (TLE):
1 37064U 99025EEY 19200.69574987 +.00000604 +00000-0 +47938-3 0  9996
2 37064 098.8959 026.7666 0143357 073.0381 288.6435 13.90211064488786
Source of the keplerian elements: AFSPC